Location: ??????
(55.7522°N, 37.6156°E)
Time: 18:29:12
(UTC+00:00)

SJ 16-02 - Pass Details

Date: 14 June 2025
Orbit: 588 x 596 km, 75.0° (Epoch: 13 July)

Event Time Altitude Azimuth Distance (km) Brightness Sun altitude
Exits shadow 21:02:26 12° 146° (SE) 1,807 3.2 -10.7°
Maximum altitude 21:05:19 22° 100° (E) 1,326 2.9 -10.8°
Drops below altitude 10° 21:08:39 10° 49° (NE) 1,945 4.4 -10.8°
Sets 21:11:16 0° 34° (NE) 2,851 5.7 -10.8°
